Cloud_Cover
100 100 100 100 100 100 100 100 100 100 100 100 100 100 100 100 100 100 100 100 100 100 99 32 32 34 68 72 10 57 5 34 5 5 8 5 5 39 7 100 90 64 87 100 83 85 100 100 100 96 100 98 100 100
100 100 100 100 100 100 100 100 100 100 100 100 100 100 100 100 100 100 100 100 100 100 91 96 90 73 77 82 6 12 6 5 55 5 9 6 15 5 52 60 100 93 69 92 100 96 100 99 100 100 100 100 94 75
98 100 100 100 100 100 100 100 100 100 100 100 100 100 100 100 100 100 100 100 88 98 87 81 100 98 16 7 26 6 5 21 45 5 5 19 32 5 5 5 5 74 9 68 97 99 100 100 100 100 100 100 96 100
100 100 100 100 100 100 100 100 100 100 100 100 100 100 100 93 100 100 100 100 100 97 90 63 21 38 24 5 15 5 6 100 89 12 5 17 12 6 5 4 11 80 49 72 97 100 100 100 100 100 100 94 99 100
100 87 100 100 100 100 100 100 100 100 100 100 100 100 100 100 52 74 100 91 100 56 61 92 29 5 5 56 27 5 26 5 7 5 7 8 4 5 5 31 75 75 98 61 47 72 98 100 100 81 99 100 72 100
100 100 100 100 100 100 100 100 100 100 100 100 100 100 100 100 63 100 98 75 100 100 87 87 25 34 44 48 26 86 36 98 82 5 5 5 5 5 8 94 100 100 100 100 100 88 53 98 90 100 100 100 100 100
100 100 100 100 100 100 100 100 100 100 100 100 100 100 100 100 89 94 100 100 69 85 100 96 96 79 39 55 86 82 99 100 90 98 46 5 1 4 31 90 57 93 100 100 98 100 43 89 96 98 100 100 100 100
100 100 100 100 100 100 100 100 100 100 100 100 100 100 100 100 100 100 100 100 98 100 84 88 62 86 82 94 73 5 68 100 100 50 8 5 5 15 79 90 89 100 100 100 98 88 94 90 63 100 100 100 100 100
100 100 99 100 100 100 100 100 100 100 100 100 100 100 100 100 100 100 100 100 100 100 97 100 63 66 81 74 6 30 21 69 25 11 9 17 7 97 100 99 100 100 100 100 100 99 49 5 46 64 93 100 100 100
6 85 100 100 100 100 100 100 100 100 100 100 100 100 100 100 86 68 93 100 100 100 83 96 33 64 21 45 87 41 86 89 74 51 74 51 84 91 88 98 100 100 100 100 95 97 93 95 67 82 91 100 100 100
92 96 100 100 100 100 100 100 100 97 91 87 100 100 100 69 47 74 96 96 100 99 100 100 5 5 5 66 40 26 92 90 92 36 96 97 95 94 95 94 100 100 100 98 94 100 100 93 86 86 91 100 100 100
0 52 100 100 100 100 100 100 100 94 100 98 100 100 99 86 85 100 100 98 99 8 31 52 14 4 5 22 10 95 92 97 97 98 100 81 99 77 70 89 62 60 37 33 44 79 96 97 92 96 100 99 98 98
44 3 24 100 100 100 100 100 100 100 100 100 100 100 98 42 98 100 100 100 80 5 8 5 5 5 9 12 93 45 99 100 46 100 86 100 92 86 5 5 24 46 59 64 67 72 82 77 74 64 59 62 52 69
77 100 65 24 32 35 79 96 98 100 97 78 92 100 100 84 46 5 5 5 5 5 4 5 5 77 92 92 61 10 48 99 99 97 35 100 61 5 5 5 6 22 5 5 18 6 53 76 96 60 68 42 50 87
83 79 100 100 100 100 100 100 99 96 63 89 100 90 78 98 100 68 92 95 100 13 11 72 42 10 64 85 100 92 100 100 52 5 62 97 50 5 5 5 5 5 51 60 60 71 70 55 58 99 89 67 33 5
99 63 17 12 34 66 70 100 100 72 90 82 97 84 100 88 97 100 100 100 99 89 22 78 94 75 94 84 100 100 99 34 14 79 91 76 54 5 7 21 31 31 10 47 58 58 57 37 34 26 47 36 49 5
100 100 99 56 6 86 100 100 94 100 100 65 91 99 97 100 100 100 100 100 100 100 98 100 87 93 84 100 93 99 61 19 96 100 98 22 53 80 46 55 54 44 37 8 56 18 25 14 50 38 25 5 7 5
77 55 99 100 98 100 100 100 94 37 11 5 100 100 100 100 100 100 100 100 100 97 88 89 72 74 90 94 54 85 100 100 96 93 99 76 47 29 51 70 71 64 29 56 15 38 44 90 95 82 96 52 70 71
6 8 80 100 100 100 100 100 95 56 5 96 100 100 100 100 100 100 100 90 100 100 100 100 29 38 54 80 90 95 95 87 93 96 92 70 49 41 40 37 60 72 73 65 71 26 59 26 34 52 64 53 84 92
7 44 82 100 100 100 100 95 44 69 98 100 100 100 100 97 92 100 100 92 100 100 100 88 49 75 44 68 51 30 7 24 69 100 100 99 79 92 99 88 75 70 64 61 74 65 93 77 68 36 62 18 76 83
8 28 100 100 100 100 100 100 100 100 100 100 100 100 100 59 50 94 99 72 93 88 87 80 72 86 78 57 6 5 5 6 74 98 100 100 92 89 78 78 66 80 83 73 85 86 84 73 70 34 63 96 12 5
67 94 97 100 100 100 98 100 100 100 100 100 100 95 56 87 100 88 89 95 88 53 56 78 82 79 59 25 33 61 61 65 96 100 99 87 92 97 84 100 100 87 72 71 74 61 63 74 70 69 62 73 38 30
100 80 100 100 100 100 100 100 100 99 93 64 86 62 91 75 37 54 75 43 65 48 50 60 14 36 74 73 47 56 90 100 100 100 100 100 100 100 91 86 99 99 98 100 78 67 30 74 74 51 48 83 9 31
100 100 100 100 99 100 84 88 99 84 80 82 78 79 89 93 99 99 73 59 22 55 17 61 38 26 53 90 100 100 100 100 100 100 100 100 100 100 99 100 99 90 85 96 78 72 68 47 49 48 53 96 91 90
100 100 100 100 100 100 86 86 98 82 64 71 99 64 84 92 80 82 43 45 99 83 73 69 53 79 100 100 100 100 100 100 88 74 79 91 100 100 99 100 100 100 85 100 92 70 85 82 70 59 97 100 87 69
100 100 100 100 100 100 100 99 86 93 75 100 77 32 46 51 85 54 13 60 92 100 100 99 96 100 100 100 100 99 91 87 100 100 100 100 100 100 100 100 100 100 91 80 100 95 91 83 61 67 100 100 100 100
92 99 100 100 100 97 96 89 91 92 90 35 97 77 39 99 89 59 72 73 77 65 96 97 100 100 100 96 87 93 100 100 100 100 100 100 100 100 100 100 100 100 100 69 96 98 78 99 92 86 95 100 100 100
100 100 100 100 100 91 93 100 97 82 73 66 24 72 73 57 98 85 80 61 62 100 100 100 100 100 100 95 100 100 100 100 100 100 100 100 100 100 100 100 100 100 100 100 100 100 100 100 94 85 98 100 100 100
100 100 100 100 98 100 99 99 97 86 71 83 61 73 99 96 100 100 94 80 100 100 100 100 100 100 100 100 100 100 100 99 100 96 100 100 100 100 100 100 100 100 100 100 100 100 100 100 100 100 100 100 100 100
100 100 100 100 100 100 97 91 85 65 40 58 70 75 56 99 100 100 100 100 100 100 100 100 100 95 100 94 100 100 100 100 98 100 100 100 100 100 100 100 100 100 100 100 100 100 100 100 100 100 100 100 100 100
100 100 100 93 98 89 97 97 91 80 77 87 94 94 100 94 100 100 100 100 100 100 100 100 100 100 98 98 91 96 100 97 100 100 100 100 100 100 100 100 100 100 100 100 100 100 100 100 100 100 100 100 100 100
100 100 98 94 91 55 74 95 89 70 56 65 82 87 70 94 91 95 98 100 99 97 100 100 100 100 100 100 100 85 100 100 100 100 100 100 100 100 100 100 100 100 100 100 100 100 100 100 100 100 100 100 100 100
100 92 72 92 84 83 56 76 87 85 100 99 89 99 97 50 89 82 99 100 100 100 100 100 100 100 100 100 100 76 74 99 100 100 100 100 100 100 100 100 100 100 100 100 100 100 100 100 100 100 100 100 100 100